Regional Weather Roundup
Issued by NWS

Home | Current Version | Previous Version | Text Only | Print | Product List | Glossary Off
Versions: 1 2 3 4 5 6 7 8 9 10 11 12 13 14 15 16 17 18 19 20 21 22 23 24 25 26 27 28 29 30 31 32 33 34 35 36 37 38 39 40 41 42 43 44 45 46 47 48 49 50

000
ASUS43 KBIS 240120
RWRND

NORTH DAKOTA REGIONAL WEATHER ROUNDUP
NATIONAL WEATHER SERVICE BISMARCK ND
800 PM CDT THU OCT 23 2014

NOTE: "FAIR" INDICATES FEW OR NO CLOUDS BELOW 12,000 FEET WITH NO
SIGNIFICANT WEATHER AND/OR OBSTRUCTIONS TO VISIBILITY.


NDZ001>003-009>011-017-240200-
NORTHWEST NORTH DAKOTA

CITY           SKY/WX    TMP DP  RH WIND       PRES   REMARKS
WILLISTON      PTCLDY    54  35  48 CALM      29.78R
MINOT          PTCLDY    56  34  43 SW7       29.74R
MINOT AFB      PTCLDY    52  35  54 SW8       29.74R
$$

NDZ018>021-031>035-040>046-240200-
SOUTHWEST NORTH DAKOTA

CITY           SKY/WX    TMP DP  RH WIND       PRES   REMARKS
BISMARCK       CLOUDY    60  30  32 SW6       29.81S
DICKINSON      MOCLDY    49  33  54 W7        29.82R
GARRISON         N/A     50  35  56 W9        29.78R
HETTINGER ARPT CLOUDY    53  27  36 S3        29.87S
$$

NDZ004>008-012>016-024-026-027-054-240200-
NORTHEAST NORTH DAKOTA

CITY           SKY/WX    TMP DP  RH WIND       PRES   REMARKS
GRAND FORKS    MOCLDY    47  37  68 S6        29.78S
GRND FRKS AFB  MOCLDY    50  39  65 S8        29.78F
DEVILS LAKE    MOCLDY    52  39  62 CALM      29.76R
$$

NDZ022-023-025-028>030-036>039-047>053-240200-
SOUTHEAST NORTH DAKOTA

CITY           SKY/WX    TMP DP  RH WIND       PRES   REMARKS
FARGO          PTCLDY    59  39  47 S13       29.83R
JAMESTOWN      CLOUDY    55  37  50 S8        29.81S
$$




USA.gov is the U.S. government's official web portal to all federal, state and local government web resources and services.